Weather History for Fort Benning, GA

Change the Weather History Date:

Saturday, May 11, 2013

  Actual Average Record
Temperature  
Mean Temperature 67 °F -  
Max Temperature 78 °F 81 °F 93 °F (2011)
Min Temperature 57 °F 55 °F 39 °F (1997)
Cooling Degree Days 2    
Growing Degree Days 17 (Base 50)    
Moisture  
Dew Point 63 °F    
Average Humidity 85    
Maximum Humidity 100    
Minimum Humidity 65    
Precipitation  
Precipitation 0.00 in - - ()
Sea Level Pressure  
Sea Level Pressure 29.98 in    
Wind  
Wind Speed 2 mph (SW)    
Max Wind Speed 9 mph    
Max Gust Speed -    
Visibility 8 miles    
Events Fog    
Averages and records for this station are not official NWS values.
T = Trace of Precipitation, MM = Missing Value Source: NWS Daily Summary

Daily Weather History Graph

Daily Weather History Graph

Search for Another Location

Airport:

Trip Planner

Search our weather history database for the weather conditions in past years. The results will help you decide how hot, cold, wet, or windy it might be!

Date:

Astronomy

May. 11, 2013 Rise Set
Actual Time 6:44 AM EDT 8:28 PM EDT
Civil Twilight 6:17 AM EDT 8:55 PM EDT
Nautical Twilight 5:45 AM EDT 9:27 PM EDT
Astronomical Twilight 5:11 AM EDT 10:01 PM EDT
Moon 7:53 AM EDT (5/11) 10:05 PM EDT (5/11)
Length of Visible Light 14h 37m
Length of Day
13h 43m
Waxing Crescent, 3% of the Moon is Illuminated
May 11
Waxing Crescent
May 18
First Quarter
May 25
Full
May 31
Last Quarter
Jun 8
New

Hourly Weather History & Observations

Time (EDT) Temp. Dew Point Humidity Pressure Visibility Wind Dir Wind Speed Gust Speed Precip Events Conditions
12:58 AM 63.0 °F 61.9 °F 96% 30.02 in 10.0 mi Calm Calm - N/A   Scattered Clouds
1:13 AM 64.4 °F 62.6 °F 94% 30.02 in 10.0 mi Calm Calm - N/A   Mostly Cloudy
1:28 AM 64.4 °F 62.6 °F 94% 30.02 in 10.0 mi NNE 1.2 mph - N/A   Mostly Cloudy
1:58 AM 63.7 °F 62.1 °F 94% 30.03 in 10.0 mi South 3.5 mph - N/A   Mostly Cloudy
2:58 AM 65.8 °F 60.4 °F 83% 30.01 in 10.0 mi West 3.5 mph - N/A   Overcast
3:58 AM 63.7 °F 61.9 °F 94% 29.98 in 10.0 mi SE 1.2 mph - N/A   Overcast
4:58 AM 60.4 °F 60.3 °F 99% 29.99 in 10.0 mi NNW 1.2 mph - N/A   Partly Cloudy
5:18 AM 60.8 °F 60.8 °F 100% 29.98 in 7.0 mi Calm Calm - N/A   Mostly Cloudy
5:28 AM 59.0 °F 59.0 °F 100% 29.97 in 1.8 mi SE 3.5 mph - N/A   Mostly Cloudy
5:38 AM 59.0 °F 59.0 °F 100% 29.96 in 6.0 mi ESE 3.5 mph - N/A   Scattered Clouds
5:48 AM 59.0 °F 57.2 °F 94% 29.96 in 4.0 mi SE 4.6 mph - N/A   Clear
5:58 AM 58.3 °F 58.1 °F 99% 29.97 in 6.0 mi SE 1.2 mph - N/A   Clear
6:13 AM 59.0 °F 59.0 °F 100% 29.96 in 3.0 mi Calm Calm - N/A   Clear
6:18 AM 59.0 °F 59.0 °F 100% 29.96 in 2.5 mi Calm Calm - N/A   Clear
6:23 AM 59.0 °F 59.0 °F 100% 29.96 in 1.5 mi Calm Calm - N/A   Clear
6:28 AM 59.0 °F 59.0 °F 100% 29.95 in 1.0 mi Calm Calm - N/A   Clear
6:33 AM 59.0 °F 59.0 °F 100% 29.96 in 0.8 mi SW 2.3 mph - N/A   Clear
6:38 AM 59.0 °F 59.0 °F 100% 29.96 in 0.8 mi SW 1.2 mph - N/A   Clear
6:43 AM 59.0 °F 57.2 °F 94% 29.96 in 1.0 mi Calm Calm - N/A   Clear
6:48 AM 57.2 °F 57.2 °F 100% 29.97 in 0.5 mi Calm Calm - N/A Fog Fog
6:53 AM 59.0 °F 59.0 °F 100% 29.98 in 0.5 mi ESE 1.2 mph - N/A Fog Fog
6:58 AM 59.0 °F 59.0 °F 100% 29.99 in 1.2 mi East 1.2 mph - N/A   Clear
7:03 AM 59.0 °F 59.0 °F 100% 29.98 in 9.0 mi East 1.2 mph - N/A   Clear
7:42 AM 60.8 °F 59.0 °F 94% 29.99 in 7.0 mi Calm Calm - N/A   Partly Cloudy
7:57 AM 62.6 °F 62.6 °F 100% 29.99 in 10.0 mi Calm Calm - N/A   Mostly Cloudy
7:58 AM 62.6 °F 62.6 °F 100% 30.00 in 10.0 mi Calm Calm - N/A   Mostly Cloudy
8:38 AM 66.2 °F 62.6 °F 88% 30.00 in 10.0 mi NNW 1.2 mph - N/A   Overcast
8:58 AM 66.4 °F 64.4 °F 93% 30.01 in 10.0 mi NW 5.8 mph - N/A   Overcast
9:33 AM 68.0 °F 64.4 °F 88% 30.02 in 10.0 mi West 3.5 mph - N/A   Overcast
9:58 AM 69.1 °F 64.6 °F 86% 30.03 in 10.0 mi WNW 4.6 mph - N/A   Overcast
10:03 AM 69.8 °F 64.4 °F 83% 30.02 in 10.0 mi Variable 3.5 mph - N/A   Overcast
10:53 AM 71.6 °F 64.4 °F 78% 30.01 in 10.0 mi Variable 1.2 mph - N/A   Overcast
10:58 AM 72.3 °F 65.1 °F 78% 30.01 in 10.0 mi SSW 5.8 mph - N/A   Overcast
11:13 AM 71.6 °F 64.4 °F 78% 30.01 in 10.0 mi WSW 5.8 mph - N/A   Mostly Cloudy
11:38 AM 73.4 °F 64.4 °F 73% 30.00 in 10.0 mi WSW 3.5 mph - N/A   Scattered Clouds
11:58 AM 74.8 °F 65.3 °F 72% 30.01 in 10.0 mi SW 3.5 mph - N/A   Scattered Clouds
12:58 PM 77.9 °F 65.3 °F 65% 30.00 in 10.0 mi SSW 8.1 mph - N/A   Mostly Cloudy
1:13 PM 77.0 °F 66.2 °F 69% 29.99 in 10.0 mi Variable 5.8 mph - N/A   Mostly Cloudy
1:18 PM 77.0 °F 66.2 °F 69% 29.99 in 10.0 mi SW 5.8 mph - N/A   Mostly Cloudy
1:28 PM 77.0 °F 64.4 °F 65% 29.98 in 10.0 mi Variable 5.8 mph - N/A   Mostly Cloudy
1:38 PM 77.0 °F 66.2 °F 69% 29.98 in 10.0 mi West 6.9 mph - N/A   Mostly Cloudy
1:43 PM 77.0 °F 66.2 °F 69% 29.98 in 10.0 mi South 8.1 mph - N/A   Mostly Cloudy
1:58 PM 77.9 °F 65.8 °F 66% 29.99 in 10.0 mi Variable 4.6 mph - N/A   Mostly Cloudy
2:58 PM 76.5 °F 65.1 °F 68% 30.00 in 10.0 mi Variable 4.6 mph - N/A   Mostly Cloudy
3:06 PM 77.0 °F 64.4 °F 65% 29.99 in 10.0 mi Variable 4.6 mph - N/A   Light Drizzle
3:19 PM 75.2 °F 66.2 °F 73% 29.98 in 10.0 mi West 3.5 mph - N/A   Mostly Cloudy
3:58 PM 75.2 °F 66.7 °F 75% 29.98 in 10.0 mi West 3.5 mph - 0.00 in   Mostly Cloudy
4:48 PM 75.2 °F 66.2 °F 73% 29.94 in 10.0 mi Variable 6.9 mph - N/A   Overcast
4:53 PM 75.2 °F 64.4 °F 69% 29.94 in 10.0 mi SSW 9.2 mph - N/A   Overcast
4:58 PM 75.2 °F 64.9 °F 70% 29.95 in 10.0 mi Variable 4.6 mph - N/A   Overcast
5:58 PM 74.5 °F 64.6 °F 71% 29.95 in 10.0 mi Variable 5.8 mph - N/A   Partly Cloudy
6:58 PM 74.1 °F 64.4 °F 72% 29.94 in 10.0 mi WSW 6.9 mph - N/A   Partly Cloudy
7:58 PM 72.3 °F 64.8 °F 77% 29.95 in 10.0 mi WSW 2.3 mph - N/A   Mostly Cloudy
8:58 PM 70.9 °F 63.9 °F 78% 29.96 in 10.0 mi South 3.5 mph - N/A   Mostly Cloudy
9:58 PM 70.0 °F 64.0 °F 81% 29.97 in 10.0 mi SW 4.6 mph - N/A   Overcast
10:58 PM 69.4 °F 64.2 °F 83% 29.98 in 10.0 mi Variable 2.3 mph - N/A   Scattered Clouds
11:58 PM 68.4 °F 64.4 °F 87% 29.99 in 10.0 mi West 2.3 mph - N/A   Mostly Cloudy